Regional Weather Roundup
Issued by NWS

Home | Current Version | Previous Version | Text Only | Print | Product List | Glossary Off
Versions: 1 2 3 4 5 6 7 8 9 10 11 12 13 14 15 16 17 18 19 20 21 22 23 24 25 26 27 28 29 30 31 32 33 34 35 36 37 38 39 40 41 42 43 44 45 46 47 48 49 50

000
ASUS45 KCYS 260110
RWRWY

WYOMING REGIONAL WEATHER ROUNDUP
NATIONAL WEATHER SERVICE CHEYENNE WY
700 PM MDT SUN SEP 25 2016

NOTE:  "FAIR" INDICATES FEW OR NO CLOUDS BELOW 12,000 FEET
WITH NO SIGNIFICANT WEATHER AND/OR OBSTRUCTIONS TO VISIBILITY.

WYZ001-260200-
YELLOWSTONE NATIONAL PARK

CITY           SKY/WX    TMP DP  RH WIND       PRES   REMARKS
LK YELLOWSTONE   N/A     50  35  56 CALM      30.54S
W YELLOWSTONE  NOT AVBL

$$
WYZ002>013-054>058-071-098>099-260200-
NORTHERN WYOMING

CITY           SKY/WX    TMP DP  RH WIND       PRES   REMARKS
JACKSON        CLEAR     57  34  41 NW8       30.48S
CODY           FAIR      57  42  57 E7        30.39R
GREYBULL       FAIR      60  41  49 W3        30.34S
WORLAND        FAIR      57  41  55 E6        30.34S
SHERIDAN       FAIR      56  42  59 W3        30.34R
BUFFALO        FAIR      56  38  50 S3        30.37S
GILLETTE       FAIR      48  41  76 W5        30.35S
HULETT         FAIR      55  32  41 CALM      30.34F
NEWCASTLE      FAIR      52  32  46 N8        30.36S

$$
WYZ014>020-022>026-101>103-260200-
CENTRAL WYOMING

CITY           SKY/WX    TMP DP  RH WIND       PRES   REMARKS
BIG PINEY      FAIR      57  35  43 NW9       30.48R
PINEDALE       FAIR      55  34  44 NW14      30.47S
DUBOIS         FAIR      52  32  46 NW9       30.46F
LANDER         FAIR      58  42  55 CALM      30.36F
RIVERTON       FAIR      55  41  59 NE7       30.38S
CASPER         FAIR      55  35  47 W8        30.39R
DOUGLAS        FAIR      56  38  50 NW5       30.37R

$$
WYZ021-027>030-104>119-260200-
SOUTHERN WYOMING

CITY           SKY/WX    TMP DP  RH WIND       PRES   REMARKS
EVANSTON       FAIR      58  32  37 N5        30.51S
FORT BRIDGER   FAIR      58  35  42 NW9       30.53S
ROCK SPRINGS   FAIR      55  33  43 SW8       30.47F
DIXON          FAIR      56  35  45 CALM      30.51S
RAWLINS        FAIR      54  32  43 W8        30.47S
SARATOGA       FAIR      50  34  53 W6        30.50S
LARAMIE        FAIR      52  32  46 N8        30.46R
CHEYENNE       FAIR      58  30  34 N14       30.40R
TORRINGTON     FAIR      56  36  47 NE9       30.34S
PINE BLUFFS    FAIR      54  32  43 NW6       30.39R

$$



USA.gov is the U.S. government's official web portal to all federal, state and local government web resources and services.